Dewpoint
39 38 37 39 38 36 33 34 34 33 34 35 38 34 34 37 38 39 39 40 36 29 27 28 26 23 22 22 20 23 25 24 26 23 21 22 22 23 22 25 24 21 21 21 21 18 17 32 29 27 31 34 34 33
36 36 37 38 37 35 34 34 33 33 34 38 38 35 35 36 38 40 37 40 40 33 32 34 33 31 29 26 26 27 27 26 28 25 24 24 24 25 23 20 26 25 28 26 27 25 30 31 29 31 32 30 31 31
37 37 38 38 36 34 35 33 32 34 34 36 36 35 35 35 37 39 38 40 37 32 32 32 29 31 34 33 30 26 24 29 30 33 29 26 25 26 22 22 24 30 30 30 29 29 28 30 31 31 30 29 29 31
35 36 37 37 36 35 36 34 33 34 35 38 37 36 35 36 38 39 38 40 38 34 28 25 30 30 31 32 32 30 28 29 32 34 28 26 26 29 25 26 25 28 28 27 28 30 29 28 29 29 29 29 28 27
35 35 37 38 35 35 35 34 34 34 36 37 34 34 36 38 39 39 40 39 39 34 29 27 30 31 32 31 31 31 29 28 29 25 25 26 27 28 31 30 26 28 27 27 25 28 28 27 28 28 26 25 25 24
35 35 36 35 35 35 34 33 33 35 36 36 35 35 36 38 40 38 33 39 40 38 31 26 29 28 33 31 30 30 30 30 29 26 29 33 34 31 26 23 29 30 30 30 28 30 29 28 28 28 25 21 20 20
35 35 35 35 35 35 34 34 34 35 36 35 35 35 36 39 41 35 32 37 41 40 31 27 25 32 32 30 30 30 31 30 28 27 29 29 28 30 27 22 26 28 29 29 30 31 26 26 24 22 21 19 18 17
35 34 34 34 34 34 34 35 35 36 35 34 35 36 39 41 42 38 39 42 40 35 33 27 24 27 33 29 27 32 29 29 31 30 30 29 28 29 25 26 25 24 25 24 25 26 25 23 21 21 20 18 17 16
35 34 35 35 34 33 33 34 34 35 34 34 37 41 42 38 34 37 42 41 40 35 28 26 23 23 34 32 31 32 30 27 30 28 27 29 26 24 26 25 23 22 22 20 23 22 22 20 19 18 18 17 16 16
33 34 35 35 34 33 33 34 35 34 35 36 39 34 31 36 43 40 37 33 33 33 31 26 28 27 33 32 30 30 30 24 23 24 30 27 24 24 23 23 22 21 20 19 22 21 21 19 18 17 17 16 16 15
32 34 35 33 32 32 32 35 34 34 37 36 31 32 39 40 37 34 28 27 28 26 27 26 27 27 34 28 28 30 27 26 19 23 24 22 22 22 21 20 18 18 18 19 19 19 19 19 18 16 16 15 15 15
32 33 33 32 31 32 33 34 33 37 36 35 37 39 38 34 31 27 25 26 24 21 25 25 26 28 32 36 30 30 25 26 20 29 25 21 20 20 19 18 17 17 17 16 16 16 16 16 16 16 15 15 15 14
33 32 31 31 31 31 33 34 34 37 39 39 35 31 30 30 25 22 20 22 22 25 28 28 27 30 33 33 30 29 23 22 31 26 22 22 19 19 18 15 15 16 16 15 15 15 15 15 15 14 14 14 13 12
32 31 31 31 33 34 34 34 35 37 36 31 30 25 26 24 25 24 22 24 30 30 30 30 29 28 31 28 30 25 26 27 22 20 22 19 19 19 18 16 15 14 14 14 14 14 13 13 13 12 13 12 12 11
31 32 32 33 33 34 35 36 37 38 31 30 30 25 25 27 27 28 30 30 31 33 31 31 31 29 29 28 28 26 24 21 21 22 20 20 19 18 16 15 14 13 13 13 14 13 13 13 12 12 13 13 11 10
34 34 34 34 35 35 35 36 34 32 30 27 25 24 25 26 26 28 29 30 33 33 33 31 28 27 26 26 23 23 22 20 22 19 20 19 17 16 15 15 14 14 14 14 14 14 13 13 14 14 13 13 12 11
35 32 34 34 34 35 37 33 32 28 26 22 23 24 26 27 27 28 30 31 33 33 29 28 25 24 24 23 22 21 23 20 18 19 20 19 17 16 15 14 14 15 15 15 15 14 14 14 14 13 13 14 13 12
34 39 40 40 37 37 31 32 28 25 21 22 22 23 23 24 26 27 29 29 32 28 26 25 24 23 23 21 21 19 17 18 19 19 18 18 17 16 16 16 15 15 15 15 14 14 14 14 13 12 13 12 11 10
37 38 38 37 35 32 29 28 24 19 21 22 22 23 23 23 24 25 26 24 24 22 22 20 22 22 22 19 18 18 18 18 17 17 17 18 17 16 16 16 16 16 15 15 15 14 13 14 13 13 12 12 11 12
38 37 36 35 32 26 25 24 24 21 21 22 22 21 21 22 22 24 25 22 20 24 23 21 19 19 19 18 18 19 19 18 16 15 16 17 17 17 17 16 16 16 15 16 15 15 13 12 12 11 10 9 9 9
33 33 31 31 29 25 25 22 21 21 22 20 21 21 21 22 22 23 23 23 23 19 19 17 18 18 18 18 19 18 18 17 16 16 15 16 17 16 16 17 17 15 14 14 13 13 13 12 11 10 11 10 10 9
30 29 27 29 27 24 23 23 20 21 21 23 22 20 21 21 20 20 19 20 17 17 17 17 17 17 17 17 17 17 18 17 17 16 16 16 15 15 15 16 15 14 14 14 13 13 12 11 11 10 9 9 8 8
31 29 29 28 22 22 21 27 21 20 19 19 20 18 19 19 18 16 17 15 16 17 18 17 17 16 17 16 15 15 14 14 15 16 16 16 16 17 15 15 14 13 12 11 12 11 10 8 9 9 9 9 8 7
26 24 25 25 22 21 24 22 21 20 20 18 17 16 16 17 14 14 15 15 16 17 17 17 17 16 16 15 15 15 16 15 15 15 15 13 12 11 11 10 10 10 9 9 10 10 9 10 7 8 9 8 7 7
20 18 20 19 20 19 19 19 19 17 16 17 16 15 15 14 14 13 14 14 16 17 17 16 16 15 15 16 16 16 16 15 14 13 12 11 11 9 8 7 8 8 10 11 10 10 10 10 9 9 8 7 6 5
16 17 18 18 19 18 17 16 16 15 15 15 16 16 16 15 12 12 11 15 17 17 18 18 17 16 15 15 14 13 12 13 11 10 10 9 9 10 9 8 8 9 9 10 9 8 6 5 5 5 5 5 4 4
15 16 16 13 16 16 17 16 15 15 14 15 15 15 13 11 11 11 13 15 16 18 18 17 15 14 12 11 11 11 11 11 11 9 8 7 7 8 9 8 7 8 7 6 6 5 4 4 3 3 4 4 4 4
14 13 14 11 11 11 11 11 12 11 13 13 13 11 10 9 9 12 14 15 18 16 14 14 14 13 12 11 11 10 8 7 7 7 7 6 6 7 6 7 6 5 6 6 6 5 5 5 4 4 3 3 3 3
11 10 8 4 6 7 7 8 9 9 10 10 10 8 8 8 10 11 14 16 16 14 12 11 11 11 9 8 9 9 9 9 7 5 5 6 7 7 6 6 6 6 6 6 4 5 5 5 4 4 3 2 2 3
9 9 6 4 3 5 7 8 9 10 9 10 8 7 7 9 10 14 15 16 16 15 14 12 12 12 10 9 7 7 7 8 9 9 6 5 6 7 7 6 5 4 4 4 3 3 3 3 3 3 2 1 1 1
9 9 7 6 6 8 9 10 10 9 9 9 9 9 8 10 11 10 10 12 12 11 11 10 9 10 9 8 8 7 7 6 3 4 6 7 7 6 5 4 4 4 3 2 1 1 -0 -0 0 -1 -2 -3 -4 -5
8 6 6 5 7 10 10 10 10 9 10 9 9 9 9 10 8 9 8 10 11 12 10 9 7 7 8 6 6 6 6 5 4 4 5 5 4 4 3 2 1 1 1 0 0 -0 -1 -2 -3 -4 -5 -6 -6 -7
7 7 8 8 8 8 9 8 7 7 9 8 9 7 6 8 7 8 9 8 11 11 10 9 8 6 5 6 5 5 4 3 3 3 1 -0 -1 0 2 2 1 0 -0 -1 -1 -2 -4 -6 -6 -7 -8 -8 -9 -9
Wind_Speed
23 22 21 24 24 21 18 16 15 13 12 10 10 11 10 9 7 5 1 15 7 4 8 7 7 8 7 6 6 10 6 5 8 7 6 5 4 6 2 5 4 4 3 3 1 1 2 22 9 6 8 12 11 12
19 17 16 20 22 18 17 17 16 13 13 7 15 12 9 10 9 7 4 7 5 3 5 6 12 16 15 10 8 2 3 4 6 5 7 4 3 4 5 1 7 2 5 5 6 4 7 11 11 9 11 11 12 10
22 19 18 22 20 17 19 16 14 14 14 11 16 12 11 11 12 10 4 6 3 2 9 8 7 6 12 17 12 4 2 2 2 1 3 3 4 3 3 3 4 3 5 2 3 6 8 11 10 12 12 12 12 11
21 19 23 24 21 19 18 17 14 13 12 13 15 12 12 12 13 12 9 9 3 1 4 2 1 6 2 8 16 16 10 5 5 3 3 3 3 2 3 4 3 4 7 4 6 8 5 13 13 11 11 10 10 11
20 19 20 19 21 20 19 17 15 14 12 14 12 12 13 12 12 8 10 11 10 4 4 6 13 3 3 5 10 13 11 8 5 4 3 3 3 3 2 3 0 5 4 4 4 4 6 6 8 9 11 10 9 8
19 20 21 22 20 21 19 16 14 15 14 15 12 13 14 11 9 5 3 11 16 10 3 4 2 1 2 4 7 11 9 7 4 4 4 4 5 3 4 2 4 5 6 9 3 6 11 9 7 7 8 8 8 8
23 21 22 23 20 19 18 15 14 13 15 13 13 13 13 14 10 5 2 3 14 10 3 3 3 3 4 6 4 6 6 4 5 3 4 4 4 3 2 3 7 6 6 6 6 9 6 1 4 4 6 7 8 9
21 20 22 21 18 18 16 15 12 14 12 13 12 13 22 29 24 9 6 11 11 6 3 3 2 3 7 4 5 4 5 4 6 4 2 4 4 3 3 6 6 4 6 5 5 6 8 7 5 5 3 3 5 7
20 18 20 21 22 19 15 15 15 13 11 11 11 15 4 3 5 6 18 12 3 3 2 3 4 2 6 3 2 4 5 5 1 4 4 4 3 5 2 7 5 3 2 2 4 4 4 4 5 5 4 5 5 7
18 17 20 23 21 18 15 15 15 12 11 7 4 3 5 6 27 19 6 5 3 3 4 5 3 4 6 5 6 5 3 4 3 5 3 4 5 5 5 7 6 4 4 4 6 2 2 2 3 5 6 6 7 8
17 17 22 21 18 17 17 17 14 11 5 3 6 3 9 24 5 3 5 6 6 4 6 5 9 5 5 4 4 3 3 3 3 4 4 4 4 5 6 6 5 5 6 7 7 6 4 3 3 4 5 6 7 7
18 19 21 19 17 17 16 16 15 9 5 7 5 7 4 4 3 4 6 5 6 5 7 6 8 6 4 1 3 4 2 3 4 6 4 3 4 8 7 6 6 5 6 6 5 5 6 6 5 6 6 7 8 8
20 19 20 19 20 20 18 16 17 12 4 4 4 6 5 4 5 9 9 6 6 6 8 9 8 6 3 3 2 4 5 4 1 4 2 2 9 8 7 7 7 6 6 7 8 8 8 9 9 9 9 8 8 8
19 18 19 20 20 21 20 19 19 11 5 4 5 8 5 6 8 7 11 6 3 6 13 12 7 4 3 4 2 3 3 2 3 4 2 6 10 9 7 7 8 8 9 10 10 9 10 10 10 8 7 6 7 7
19 19 20 20 20 21 20 17 15 3 2 3 4 5 7 3 2 3 5 6 3 13 13 8 4 3 3 2 1 2 4 4 4 1 3 10 11 9 8 8 9 9 9 9 9 9 9 9 9 8 6 6 7 6
13 12 14 21 22 23 18 16 4 2 1 1 2 4 3 6 5 6 6 6 5 12 5 3 4 3 4 3 3 5 3 3 3 4 9 12 10 9 10 9 9 9 9 10 9 9 9 8 8 8 7 6 5 5
13 9 22 34 30 26 23 4 2 2 1 2 3 2 3 4 6 4 2 4 0 10 4 3 5 3 4 2 3 3 1 3 7 10 9 9 11 10 10 10 9 9 8 8 8 7 7 6 5 4 3 4 2 3
9 16 25 37 40 21 3 2 3 3 2 2 3 5 3 3 6 4 3 1 1 4 3 1 3 3 3 2 2 4 5 8 10 10 9 9 10 10 9 9 7 7 7 6 5 5 4 3 1 1 1 1 1 2
17 31 42 41 24 10 5 3 2 4 3 4 6 6 4 5 6 4 4 5 4 4 6 2 1 2 2 1 4 8 13 10 12 10 9 8 8 9 9 8 7 7 6 6 5 3 2 0 3 4 3 3 6 5
23 20 18 17 8 6 5 4 2 4 4 4 5 6 5 5 4 5 6 3 3 3 2 1 1 2 2 3 4 12 12 12 14 13 10 8 7 8 7 6 5 6 5 4 3 2 2 2 1 1 3 4 7 7
16 6 11 8 6 8 6 4 4 4 6 5 9 4 5 4 4 2 3 2 3 2 2 1 4 4 3 7 10 12 13 11 9 7 10 10 7 6 6 5 4 4 3 3 4 3 3 4 1 2 3 4 3 4
4 6 5 6 6 5 5 3 7 6 4 8 5 4 6 5 4 2 1 3 3 2 2 6 8 11 13 13 12 11 11 9 9 11 11 11 8 6 4 4 3 3 3 3 4 4 3 2 2 2 4 3 3 3
8 6 6 5 4 4 5 1 3 3 5 6 5 5 3 3 3 3 3 2 3 2 7 10 10 10 15 15 14 11 9 11 10 9 8 7 6 5 5 3 1 2 3 2 2 2 2 0 1 2 3 4 5 5
6 5 3 3 3 5 4 3 4 5 5 4 4 5 4 4 4 2 3 3 5 10 10 14 14 15 13 12 11 10 8 8 10 8 7 7 6 5 3 3 2 2 2 1 1 2 2 3 2 4 4 5 4 5
4 6 3 5 3 5 5 5 4 3 4 4 4 4 5 5 4 4 5 7 13 12 13 12 12 11 12 11 9 8 5 6 8 9 5 3 5 5 4 2 2 2 2 2 3 4 4 4 4 5 5 5 5 6
6 6 4 2 3 3 4 5 5 5 6 4 3 5 4 4 5 3 5 12 14 13 14 13 13 12 10 10 11 10 7 5 6 6 4 2 2 1 3 4 4 2 2 2 3 5 5 4 5 5 6 5 4 6
4 4 4 4 1 5 5 5 4 4 4 4 7 7 5 5 4 3 5 5 10 11 10 8 9 10 13 11 9 8 7 6 5 7 7 6 5 4 3 2 1 2 2 2 2 3 3 3 4 4 4 5 5 6
4 4 4 3 6 6 4 4 3 2 3 2 5 3 5 2 3 3 3 3 10 13 12 11 10 11 12 10 10 11 10 10 10 10 9 7 6 6 6 6 5 4 3 3 2 2 3 4 5 5 5 7 7 6
4 3 3 6 5 6 6 3 3 2 2 0 3 3 3 3 3 2 4 8 11 13 13 13 11 12 12 11 9 7 9 7 5 3 3 2 2 2 3 3 3 3 2 2 1 3 4 5 5 6 7 7 8 7
3 3 4 4 4 4 4 3 3 3 4 4 5 5 4 3 5 5 7 8 10 11 10 11 11 10 11 10 10 6 3 3 3 1 0 1 2 5 4 2 1 2 2 3 3 4 2 4 5 5 6 8 8 9
2 3 5 5 4 5 6 3 3 4 3 4 5 8 8 5 4 9 8 5 8 10 13 12 9 8 9 10 8 7 5 2 3 4 6 7 6 5 3 3 2 2 3 3 4 4 5 6 6 7 9 10 10 10
3 3 5 5 5 4 0 1 3 4 3 5 4 3 3 4 4 3 5 3 7 9 8 9 10 7 6 6 6 6 8 10 8 6 5 5 5 4 3 2 1 2 3 3 4 5 6 7 8 9 10 11 12 12
3 4 4 6 5 5 4 3 3 4 3 3 3 2 3 3 4 3 3 5 3 8 10 10 10 10 8 8 10 10 9 9 8 7 7 6 5 3 2 1 2 3 4 5 5 6 7 8 9 10 10 11 12 12
Wind_Direction
201 206 203 184 186 196 196 196 199 203 223 212 226 199 208 213 231 211 156 184 195 245 273 254 260 274 284 280 312 339 308 13 351 15 357 2 349 26 304 43 356 15 330 53 16 8 147 360 347 12 331 33 38 44
186 193 195 199 192 192 191 191 197 215 220 224 200 201 218 221 227 224 211 195 168 218 293 295 279 269 265 275 288 325 337 330 6 328 18 319 344 336 346 84 25 38 21 348 18 62 47 41 59 38 39 56 39 57
195 184 174 168 187 204 196 201 199 213 217 216 211 210 225 224 227 222 196 146 155 247 272 251 266 278 235 234 227 258 179 353 42 346 312 315 297 322 347 15 325 95 10 17 195 68 62 50 58 55 53 56 43 42
199 192 190 193 197 198 201 200 198 219 220 217 204 223 226 224 236 223 207 167 179 138 279 293 319 276 273 218 214 220 249 280 297 257 290 275 283 355 332 330 290 351 319 349 103 108 118 62 45 48 56 61 61 56
198 192 180 181 199 199 201 202 202 211 207 210 221 230 226 230 223 235 228 194 186 207 304 298 301 279 259 215 203 210 219 239 254 287 275 266 289 284 252 248 63 6 13 347 70 18 71 72 54 55 59 51 43 55
201 199 195 198 201 199 199 200 208 208 228 208 224 228 234 231 238 207 249 223 207 194 252 263 41 193 79 165 187 189 198 209 242 289 292 293 282 290 325 309 93 84 63 30 65 86 96 108 83 70 69 60 57 61
203 199 202 194 195 202 197 201 205 215 200 217 231 230 242 245 222 174 231 27 185 148 219 245 235 142 116 135 137 170 192 219 240 249 238 267 275 237 225 264 135 119 94 68 51 132 119 147 96 74 73 78 80 73
206 197 196 192 193 196 194 193 194 198 209 231 228 241 243 238 228 216 218 132 132 111 197 248 245 216 186 167 161 172 171 192 211 245 270 256 276 251 257 129 142 138 133 79 69 59 80 107 87 74 70 72 74 72
188 187 189 186 186 193 200 198 194 203 219 227 247 266 125 113 132 167 131 149 190 223 227 219 237 187 170 135 112 172 189 199 170 244 227 216 235 236 89 160 144 71 97 53 109 90 92 81 71 58 48 50 76 73
182 188 186 186 191 197 204 202 187 203 220 224 254 192 169 171 117 107 141 172 205 195 234 240 228 207 191 163 171 174 214 230 223 210 170 231 233 95 92 98 118 89 50 12 183 178 134 96 80 67 66 72 86 93
185 188 183 184 193 197 198 191 186 196 162 199 188 160 114 119 117 130 144 179 172 219 211 221 212 180 204 199 139 232 193 192 246 151 219 206 211 137 137 113 93 76 69 70 79 83 66 77 120 110 96 95 95 96
186 181 185 191 196 193 187 186 184 157 200 195 138 92 107 158 135 151 168 164 206 221 180 191 196 200 145 92 203 180 215 206 235 149 222 238 102 137 138 111 86 74 78 77 77 88 81 84 89 105 109 102 93 95
192 194 195 198 198 193 192 191 183 198 201 211 145 150 172 164 168 184 183 197 202 191 181 169 160 158 138 206 184 172 201 241 129 216 240 54 139 142 135 122 94 87 95 95 87 85 90 90 85 99 104 107 117 107
196 201 202 196 196 192 187 194 190 202 218 205 157 138 209 183 206 186 191 184 135 153 160 166 134 161 173 174 190 215 177 223 232 234 210 150 155 144 128 122 117 101 98 103 104 104 98 94 91 89 100 115 118 109
205 203 200 203 197 186 188 182 181 161 212 207 160 184 194 126 94 125 125 122 124 148 146 137 131 183 145 194 214 148 189 226 228 286 103 138 143 138 126 119 118 118 118 117 121 119 123 129 126 117 114 111 109 106
191 197 208 197 188 176 174 161 94 113 95 222 102 133 149 148 152 149 172 138 141 156 154 142 140 172 177 192 184 211 231 231 121 100 128 134 134 129 129 129 129 129 129 127 128 129 127 125 119 113 111 111 117 129
198 219 203 202 196 185 162 114 106 79 123 129 114 59 93 102 154 119 100 140 200 169 168 155 178 167 124 188 218 202 247 83 125 126 128 128 139 137 133 132 135 137 132 125 115 102 99 97 108 111 104 121 124 118
239 216 194 175 166 162 62 80 101 93 100 121 159 130 90 84 126 118 109 106 152 159 155 147 129 181 202 211 192 149 121 122 117 122 119 121 124 131 137 133 127 124 119 110 106 110 115 113 76 31 18 186 221 221
115 118 116 121 125 118 110 111 208 113 85 97 104 101 93 102 70 75 85 60 75 94 107 100 149 196 176 116 126 137 142 143 137 125 116 111 122 127 130 132 137 137 132 140 155 165 153 251 328 324 294 269 274 275
98 100 99 91 109 105 100 94 106 103 135 128 125 115 95 85 82 75 76 82 93 95 106 98 120 107 88 118 133 141 136 135 137 133 133 134 136 144 142 148 142 143 157 163 178 195 187 211 247 306 334 329 305 304
113 106 70 64 50 70 92 121 87 96 123 112 124 103 94 93 93 83 81 16 78 64 119 109 126 111 109 118 120 125 131 142 143 150 151 148 148 142 141 144 158 172 185 192 205 200 247 276 298 299 309 316 321 311
91 60 93 68 70 79 90 53 112 122 97 121 113 106 116 124 121 96 98 73 83 107 128 142 134 130 124 118 120 121 121 115 109 107 106 127 144 151 159 160 182 194 213 228 258 263 255 262 288 293 298 305 284 297
85 41 54 58 83 74 116 185 101 93 119 135 127 109 110 123 120 149 96 80 102 129 140 133 130 121 119 118 113 110 121 121 117 118 127 121 123 125 131 130 136 199 226 213 238 237 252 293 200 288 294 277 287 284
59 69 88 91 90 108 138 109 111 111 119 141 127 117 137 138 155 165 138 131 132 143 141 138 133 126 121 126 124 120 116 119 118 113 122 134 135 119 115 118 103 81 24 48 228 254 261 267 278 276 283 279 283 291
94 22 50 85 90 122 117 128 120 112 120 138 125 135 155 165 160 175 173 159 162 156 151 150 149 152 146 134 129 121 124 145 145 137 116 120 124 137 152 148 114 61 7 275 268 287 288 288 283 281 281 278 290 292
79 21 38 81 107 122 142 130 150 139 125 125 123 129 162 166 177 177 168 164 163 158 162 161 152 142 137 141 140 141 128 122 133 135 118 148 157 241 251 247 249 207 33 3 319 309 309 314 305 293 280 274 269 292
92 62 55 36 35 102 103 85 97 114 120 144 157 162 165 180 178 136 138 151 154 153 146 142 148 145 140 130 115 104 97 78 77 98 104 86 66 43 13 336 315 54 61 31 10 353 347 346 336 324 312 304 298 294
76 33 127 31 64 35 105 87 85 94 111 107 151 132 160 146 130 105 80 108 128 121 104 85 87 113 120 121 120 114 99 102 101 102 100 90 75 70 70 73 69 61 53 19 7 357 334 328 318 313 314 313 310 303
67 55 90 67 60 54 45 52 83 72 15 98 111 115 110 65 27 53 106 133 135 127 118 112 97 105 102 97 91 107 128 140 149 158 179 165 179 150 96 81 72 41 1 327 299 285 294 297 302 302 306 304 306 301
74 25 92 71 62 57 31 18 75 68 47 63 101 111 95 74 38 25 125 140 142 131 119 124 132 133 134 137 134 125 86 34 15 19 197 112 94 122 129 98 34 29 348 342 336 323 314 306 303 277 299 304 303 306
51 94 83 74 87 97 95 80 100 95 55 65 67 104 108 119 89 45 56 66 110 122 126 126 116 123 137 143 149 150 143 76 77 75 88 101 109 114 107 83 51 353 344 337 335 331 330 318 315 313 313 315 315 311
46 65 117 109 125 148 134 86 76 72 67 90 78 110 121 105 85 61 18 57 130 131 123 131 134 133 113 101 86 75 89 117 114 108 101 102 102 99 92 63 357 337 344 338 333 327 324 322 318 319 317 318 322 320
100 90 91 109 129 162 161 129 98 106 88 102 88 52 55 66 118 105 81 26 54 127 125 111 105 107 104 103 109 104 98 100 100 94 85 82 84 90 79 14 336 339 331 327 324 323 324 325 323 327 327 328 327 326